Snowfall_Accumulation
3.1 7.8 9.9 5.0 3.8 3.2 3.3 3.6 3.1 1.8 0.6 1.0 1.2 0.9 0.2 0.1 0.1 0.1 0.4 0.2 0.1 0.1 0.0 0.0 0.0 0.0 0.0 0.0 0.0 0.0 0.0 0.0 0.0 0.0 0.0 0.0 0.1 0.0 0.0 0.0 0.0 0.0 0.0 0.0
6.6 7.9 3.7 1.6 1.8 3.1 4.3 5.2 3.6 1.6 0.8 1.1 1.3 0.9 0.3 0.1 0.2 0.3 0.3 0.2 0.1 0.1 0.0 0.0 0.0 0.0 0.0 0.0 0.0 0.0 0.0 0.0 0.0 0.0 0.0 0.0 0.0 0.0 0.0 0.0 0.0 0.0 0.0 0.0
7.5 3.6 0.9 2.3 3.5 4.8 4.8 4.6 3.3 2.9 1.9 1.5 2.5 2.5 0.7 0.4 0.3 0.5 0.5 0.4 0.2 0.2 0.1 0.1 0.1 0.1 0.1 0.0 0.0 0.0 0.0 0.0 0.0 0.0 0.0 0.0 0.0 0.0 0.0 0.0 0.0 0.0 0.0 0.0
4.2 1.3 1.6 3.3 3.8 4.5 6.3 2.2 2.1 2.8 5.0 6.3 5.0 8.0 1.8 0.7 0.5 0.5 0.5 0.6 0.3 0.3 0.1 0.1 0.1 0.1 0.1 0.1 0.1 0.0 0.0 0.0 0.0 0.0 0.0 0.0 0.0 0.0 0.0 0.0 0.0 0.0 0.0 0.0
4.9 1.6 2.3 4.2 2.9 2.8 3.3 1.3 2.0 3.4 5.8 8.4 4.7 8.8 3.1 1.2 1.5 1.4 0.6 0.6 0.7 0.4 0.3 0.3 0.2 0.1 0.1 0.1 0.1 0.1 0.0 0.0 0.0 0.0 0.0 0.0 0.0 0.0 0.0 0.0 0.0 0.0 0.0 0.0
3.1 0.7 1.4 2.3 1.0 1.5 1.6 2.2 3.2 4.5 9.2 18.2 6.8 7.7 5.0 3.4 3.6 2.3 1.0 0.6 0.6 0.6 0.4 0.4 0.4 0.2 0.1 0.1 0.1 0.1 0.0 0.0 0.0 0.0 0.0 0.0 0.0 0.0 0.0 0.0 0.0 0.0 0.0 0.0
6.3 2.9 1.5 1.2 3.2 2.7 4.1 10.7 25.9 29.1 28.5 16.0 3.1 5.1 5.3 3.5 3.1 3.1 1.9 1.3 0.6 0.5 0.5 0.4 0.4 0.3 0.2 0.2 0.1 0.1 0.1 0.1 0.1 0.0 0.0 0.0 0.0 0.0 0.0 0.0 0.0 0.1 0.1 0.1
10.8 10.0 2.6 1.3 2.9 5.7 5.1 8.1 17.6 20.1 15.1 7.1 3.5 4.9 4.0 2.7 2.0 2.2 1.7 1.1 0.7 0.3 0.4 0.3 0.4 0.5 0.6 0.2 0.1 0.1 0.1 0.2 0.2 0.0 0.0 0.0 0.0 0.0 0.0 0.0 0.1 0.1 0.1 0.0
11.1 8.6 2.1 0.9 0.9 2.7 6.8 7.5 5.4 10.8 9.0 6.2 5.2 3.8 3.1 1.8 1.8 1.9 2.1 1.3 1.1 0.9 0.3 0.4 0.4 0.5 0.3 0.2 0.2 0.1 0.1 0.1 0.3 0.3 0.0 0.0 0.0 0.0 0.0 0.0 0.1 0.1 0.1 0.0
11.0 10.1 3.4 1.5 1.5 2.0 3.9 5.4 9.1 15.7 14.5 8.5 5.0 4.0 4.5 3.4 2.6 2.2 2.2 2.5 1.1 1.0 0.4 0.4 0.5 0.4 0.2 0.2 0.1 0.1 0.0 0.0 0.1 0.2 0.0 0.0 0.1 0.0 0.0 0.2 0.1 0.1 0.0 0.1
9.1 11.6 7.9 4.3 6.3 6.7 6.2 8.7 11.8 13.4 11.7 10.7 7.2 5.4 4.5 3.6 2.8 2.6 2.2 2.2 1.6 1.4 1.0 0.7 0.6 0.3 0.1 0.2 0.1 0.1 0.1 0.1 0.1 0.1 0.0 0.1 0.0 0.1 0.1 0.2 0.2 0.2 0.2 0.1
9.1 12.2 11.3 6.2 2.8 2.9 5.0 8.3 10.5 15.9 12.7 8.2 8.0 6.2 3.1 2.4 2.2 2.1 2.2 2.2 2.0 1.5 1.2 0.9 0.7 0.3 0.2 0.2 0.2 0.3 0.1 0.1 0.1 0.1 0.0 0.0 0.1 0.2 0.1 0.3 0.4 0.2 0.2 0.3
13.0 16.5 17.3 10.8 6.3 4.3 6.6 7.3 8.5 10.1 11.4 9.3 8.4 6.1 2.5 1.7 1.6 1.6 1.7 1.7 1.7 1.5 1.1 0.8 0.9 0.5 0.6 0.6 0.5 0.6 0.4 0.4 0.2 0.1 0.1 0.1 0.2 0.1 0.3 0.2 0.2 0.3 0.3 0.2
12.3 18.2 14.0 12.8 9.7 9.3 9.4 7.1 7.0 10.5 14.5 9.7 6.4 5.1 3.6 2.9 2.6 2.1 1.8 1.9 2.2 1.9 1.6 1.3 1.1 1.2 1.1 1.0 0.9 0.9 0.8 0.7 0.7 0.7 0.3 0.5 0.6 0.5 0.6 0.4 0.6 1.1 1.6 1.7
12.9 16.0 7.4 4.3 4.1 4.9 6.2 5.6 5.6 7.8 8.2 8.1 5.0 4.4 4.6 3.7 3.3 3.0 2.4 2.0 2.1 2.6 2.5 2.2 1.7 1.5 1.4 1.3 1.0 1.0 1.1 1.2 1.1 1.2 1.1 0.9 1.0 1.4 1.0 0.8 1.0 1.3 2.0 2.7
13.1 14.4 7.2 4.3 2.7 3.4 4.6 3.7 3.4 4.1 4.4 5.1 4.4 5.0 3.8 2.9 2.5 2.5 2.5 2.4 2.6 3.1 3.2 2.9 2.3 1.9 1.9 1.9 1.8 1.4 1.6 1.5 1.5 1.5 1.4 1.8 1.7 2.2 2.2 1.2 1.1 1.4 2.0 2.6
12.7 13.0 11.7 7.7 3.3 5.1 7.7 4.9 4.0 4.2 4.2 4.8 5.6 5.6 4.2 3.3 3.1 3.1 2.8 2.9 2.8 3.0 3.1 2.9 2.9 2.7 2.4 2.2 2.5 2.8 1.9 1.4 1.4 1.7 1.8 2.3 2.6 2.5 2.5 2.3 2.1 2.5 3.0 3.0
10.4 12.0 15.1 11.6 8.5 12.3 6.1 3.6 3.4 3.7 4.7 4.5 5.0 4.9 4.1 3.9 3.7 3.3 3.1 3.2 3.2 3.0 2.7 2.7 3.1 3.0 2.6 2.3 2.5 2.1 2.2 1.8 1.5 1.6 2.1 2.2 2.4 3.0 2.7 2.2 2.3 2.6 2.2 2.0
5.2 11.3 17.2 15.2 11.6 6.8 3.5 3.0 4.0 4.8 5.8 4.9 4.6 4.3 3.5 3.2 2.9 3.3 2.8 2.7 3.2 2.9 2.6 2.6 2.5 2.7 2.3 2.0 2.5 2.3 2.0 1.9 1.7 1.9 1.9 2.2 2.2 2.8 2.4 2.2 2.1 1.8 1.7 1.6
5.1 9.7 17.6 16.1 12.7 7.0 4.0 2.4 2.6 3.9 6.7 4.4 3.9 4.2 3.8 3.5 5.2 5.1 3.5 3.0 2.6 2.2 2.2 2.2 2.2 2.1 1.6 1.6 1.7 1.4 1.5 1.8 1.9 1.9 2.1 1.8 1.8 2.2 1.8 1.8 1.3 1.1 0.9 1.9
9.8 14.4 16.6 13.4 10.8 5.0 3.3 2.3 1.9 6.7 8.8 4.1 3.8 4.2 4.0 4.9 6.2 5.2 3.9 3.2 2.7 2.6 2.2 2.1 2.0 2.1 2.0 1.4 1.1 1.2 1.0 1.6 1.7 1.6 1.7 1.4 1.4 1.4 1.1 1.4 1.2 1.2 1.5 1.7
7.0 9.8 10.5 10.0 11.1 6.1 2.9 3.2 5.8 7.1 3.6 3.5 3.7 3.7 4.1 3.9 3.4 3.3 3.4 3.0 2.6 2.5 2.1 1.9 1.9 2.1 1.9 1.7 1.6 1.4 1.3 1.4 1.3 1.8 2.0 1.6 1.5 1.4 1.3 1.9 1.8 1.5 1.7 1.7
5.0 6.5 7.1 7.2 6.2 4.5 3.5 4.0 4.0 3.1 3.1 2.9 3.2 3.4 3.6 3.6 3.4 3.4 3.0 2.7 2.5 2.2 2.0 1.9 2.0 2.2 1.8 1.6 1.7 1.9 1.5 1.5 1.6 1.7 1.5 1.5 1.3 1.4 1.5 1.9 2.3 2.0 2.2 2.8
3.9 3.4 4.7 4.7 3.7 3.1 3.0 3.0 2.8 2.6 2.8 2.7 2.9 3.4 3.3 3.7 3.4 3.1 2.7 2.5 2.2 2.1 1.8 1.8 1.9 2.2 2.3 2.1 2.1 2.0 2.0 1.9 2.0 2.0 1.3 1.1 1.2 1.2 1.3 1.5 2.2 2.8 3.1 4.2
3.4 3.2 4.4 4.1 2.9 2.5 2.2 2.3 2.5 2.7 2.4 2.4 2.5 2.9 3.1 3.1 3.0 2.9 2.8 2.7 2.7 2.2 1.7 1.7 1.9 2.3 2.6 2.3 2.3 2.2 2.6 2.7 2.6 1.9 1.7 1.4 1.2 1.1 1.4 1.4 1.8 2.8 3.1 5.1
2.6 3.3 4.4 4.0 2.4 3.0 2.6 1.9 1.9 2.4 2.5 2.3 2.5 2.7 2.4 2.5 2.9 2.7 2.6 2.5 2.5 2.2 2.0 1.8 2.2 2.6 2.5 2.4 2.6 2.5 2.9 3.3 3.6 2.6 2.1 1.9 1.9 1.4 1.4 1.6 1.9 1.6 2.3 2.6